owner,sensor,date,latitude,longitude,vertical_datum,wind_speed,wind_to_direction,wind_speed_of_gust,qcFlag 
TABS,ioos:station:wmo:42045:1,2014-12-01T00:00:00Z,26.2168,-96.4998,4.0,7.161906171,154.7948877,8.52,'11111222,11111222,11111222' 
TABS,ioos:station:wmo:42045:1,2014-12-01T00:30:00Z,26.2168,-96.4998,4.0,6.851955925,154.2205564,7.94,'11111222,11111222,11111222' 
TABS,ioos:station:wmo:42045:1,2014-12-01T01:00:00Z,26.2168,-96.4998,4.0,7.025225975,156.2447995,8.11,'11111222,11111222,11111222' 
TABS,ioos:station:wmo:42045:1,2014-12-01T01:30:00Z,26.2168,-96.4998,4.0,6.902709613,154.8830856,7.91,'11111222,11111222,11111222' 
TABS,ioos:station:wmo:42045:1,2014-12-01T02:00:00Z,26.2168,-96.4998,4.0,6.632360063,153.0102446,7.44,'11111222,11111222,11111222' 
TABS,ioos:station:wmo:42045:1,2014-12-01T02:30:00Z,26.2168,-96.4998,4.0,6.484689661,158.6582574,7.67,'11111222,11111222,11111222' 
TABS,ioos:station:wmo:42045:1,2014-12-01T03:00:00Z,26.2168,-96.4998,4.0,6.337325934,152.8691572,7.23,'11111222,11111222,11111222' 
TABS,ioos:station:wmo:42045:1,2014-12-01T03:30:00Z,26.2168,-96.4998,4.0,5.642348802,157.161684,6.59,'11111222,11111222,11111222' 
TABS,ioos:station:wmo:42045:1,2014-12-01T04:00:00Z,26.2168,-96.4998,4.0,5.668236057,151.8980592,6.71,'11111222,11111222,11111222' 
TABS,ioos:station:wmo:42045:1,2014-12-01T04:30:00Z,26.2168,-96.4998,4.0,6.12640188,163.695153,7.85,'11111222,11111222,11111222' 
TABS,ioos:station:wmo:42045:1,2014-12-01T05:00:00Z,26.2168,-96.4998,4.0,6.553602063,163.6945822,7.87,'11111222,11111222,11111222' 
TABS,ioos:station:wmo:42045:1,2014-12-01T05:30:00Z,26.2168,-96.4998,4.0,6.491409708,160.0020689,7.66,'11111222,11111222,11111222' 
TABS,ioos:station:wmo:42045:1,2014-12-01T06:00:00Z,26.2168,-96.4998,4.0,6.822939249,160.2108617,7.9,'11111222,11111222,11111222' 
TABS,ioos:station:wmo:42045:1,2014-12-01T06:30:00Z,26.2168,-96.4998,4.0,6.926073924,163.4753242,8.42,'11111222,11111222,11111222' 
TABS,ioos:station:wmo:42045:1,2014-12-01T07:00:00Z,26.2168,-96.4998,4.0,6.535579546,169.6875469,7.41,'11111222,11111222,11111222' 
TABS,ioos:station:wmo:42045:1,2014-12-01T07:30:00Z,26.2168,-96.4998,4.0,5.787443304,168.9427065,6.72,'11111222,11111222,11111222' 
TABS,ioos:station:wmo:42045:1,2014-12-01T08:00:00Z,26.2168,-96.4998,4.0,6.395975297,166.5288988,7.36,'11111222,11111222,11111222' 
TABS,ioos:station:wmo:42045:1,2014-12-01T08:30:00Z,26.2168,-96.4998,4.0,5.778096572,164.9538538,6.99,'11111222,11111222,11111222' 
TABS,ioos:station:wmo:42045:1,2014-12-01T09:00:00Z,26.2168,-96.4998,4.0,6.030961781,168.038187,7.03,'11111222,11111222,11111222' 
TABS,ioos:station:wmo:42045:1,2014-12-01T09:30:00Z,26.2168,-96.4998,4.0,5.176069938,169.5369765,6.42,'11111222,11111222,11111222' 
TABS,ioos:station:wmo:42045:1,2014-12-01T10:00:00Z,26.2168,-96.4998,4.0,5.979782605,167.1492579,6.88,'11111222,11111222,11111222' 
TABS,ioos:station:wmo:42045:1,2014-12-01T10:30:00Z,26.2168,-96.4998,4.0,4.770838501,158.8679026,5.71,'11111222,11111222,11111222' 
TABS,ioos:station:wmo:42045:1,2014-12-01T11:00:00Z,26.2168,-96.4998,4.0,5.44008272,157.064433,6.51,'11111222,11111222,11111222' 
TABS,ioos:station:wmo:42045:1,2014-12-01T11:30:00Z,26.2168,-96.4998,4.0,6.193585391,148.1321839,7.51,'11111222,11111222,11111222' 
TABS,ioos:station:wmo:42045:1,2014-12-01T12:00:00Z,26.2168,-96.4998,4.0,5.676521822,152.17122,6.52,'11111222,11111222,11111222' 
TABS,ioos:station:wmo:42045:1,2014-12-01T12:30:00Z,26.2168,-96.4998,4.0,5.544555888,148.9479158,6.7,'11111222,11111222,11111222' 
TABS,ioos:station:wmo:42045:1,2014-12-01T13:00:00Z,26.2168,-96.4998,4.0,5.709535883,151.5499952,6.84,'11111222,11111222,11111222' 
TABS,ioos:station:wmo:42045:1,2014-12-01T13:30:00Z,26.2168,-96.4998,4.0,4.683641745,148.8896685,5.59,'11111222,11111222,11111222' 
TABS,ioos:station:wmo:42045:1,2014-12-01T14:00:00Z,26.2168,-96.4998,4.0,4.601564951,155.8860683,5.48,'11111222,11111222,11111222' 
TABS,ioos:station:wmo:42045:1,2014-12-01T14:30:00Z,26.2168,-96.4998,4.0,4.308004178,154.8628547,5.09,'11111222,11111222,11111222' 
TABS,ioos:station:wmo:42045:1,2014-12-01T15:00:00Z,26.2168,-96.4998,4.0,4.394963026,141.9309386,4.96,'11111222,11111222,11111222' 
TABS,ioos:station:wmo:42045:1,2014-12-01T15:30:00Z,26.2168,-96.4998,4.0,4.41035146,141.2593374,4.91,'11111222,11111222,11111222' 
TABS,ioos:station:wmo:42045:1,2014-12-01T16:00:00Z,26.2168,-96.4998,4.0,3.74553067,148.9840578,4.33,'11111222,11111222,11111222' 
TABS,ioos:station:wmo:42045:1,2014-12-01T16:30:00Z,26.2168,-96.4998,4.0,3.576143174,143.6430981,4.19,'11111222,11111222,11111222' 
TABS,ioos:station:wmo:42045:1,2014-12-01T17:00:00Z,26.2168,-96.4998,4.0,2.694160352,135.4514532,3.19,'11111222,11111222,11111222' 
TABS,ioos:station:wmo:42045:1,2014-12-01T17:30:00Z,26.2168,-96.4998,4.0,3.526471324,129.0153774,4.09,'11111222,11111222,11111222' 
TABS,ioos:station:wmo:42045:1,2014-12-01T18:00:00Z,26.2168,-96.4998,4.0,3.273316361,119.4629904,3.85,'11111222,11111222,11111222' 
TABS,ioos:station:wmo:42045:1,2014-12-01T18:30:00Z,26.2168,-96.4998,4.0,2.432878953,116.8813754,2.83,'11111222,11111222,11111222' 
TABS,ioos:station:wmo:42045:1,2014-12-01T19:00:00Z,26.2168,-96.4998,4.0,2.024080038,111.7492146,2.32,'11111222,11111222,11111222' 
TABS,ioos:station:wmo:42045:1,2014-12-01T19:30:00Z,26.2168,-96.4998,4.0,0.0,0.0,0.0,'11111222,11111222,11111222' 
TABS,ioos:station:wmo:42045:1,2014-12-01T20:00:00Z,26.2168,-96.4998,4.0,2.341644721,112.0743974,2.92,'11111222,11111222,11111222' 
TABS,ioos:station:wmo:42045:1,2014-12-01T20:30:00Z,26.2168,-96.4998,4.0,4.148795006,102.5291993,4.86,'11111222,11111222,11111222' 
TABS,ioos:station:wmo:42045:1,2014-12-01T21:00:00Z,26.2168,-96.4998,4.0,4.5587937,102.5428314,5.29,'11111222,11111222,11111222' 
TABS,ioos:station:wmo:42045:1,2014-12-01T21:30:00Z,26.2168,-96.4998,4.0,4.800374985,108.2088628,5.61,'11111222,11111222,11111222' 
TABS,ioos:station:wmo:42045:1,2014-12-01T22:00:00Z,26.2168,-96.4998,4.0,5.901770921,105.0256074,6.63,'11111222,11111222,11111222' 
TABS,ioos:station:wmo:42045:1,2014-12-01T22:30:00Z,26.2168,-96.4998,4.0,4.704657267,96.95925917,5.81,'11111222,11111222,11111222' 
TABS,ioos:station:wmo:42045:1,2014-12-01T23:00:00Z,26.2168,-96.4998,4.0,4.601086828,95.48796515,5.28,'11111222,11111222,11111222' 
TABS,ioos:station:wmo:42045:1,2014-12-02T00:00:00Z,26.2168,-96.4998,4.0,5.214786669,99.71560052,6.25,'11111222,11111222,11111222' 
TABS,ioos:station:wmo:42045:1,2014-12-02T00:30:00Z,26.2168,-96.4998,4.0,5.205084053,92.53300071,6.12,'11111222,11111222,11111222' 
TABS,ioos:station:wmo:42045:1,2014-12-02T01:00:00Z,26.2168,-96.4998,4.0,5.284411036,94.23280108,6.47,'11111222,11111222,11111222' 
TABS,ioos:station:wmo:42045:1,2014-12-02T01:30:00Z,26.2168,-96.4998,4.0,5.613065116,97.88509735,6.71,'11111222,11111222,11111222' 
TABS,ioos:station:wmo:42045:1,2014-12-02T02:00:00Z,26.2168,-96.4998,4.0,5.719877621,100.1708519,6.88,'11111222,11111222,11111222' 
TABS,ioos:station:wmo:42045:1,2014-12-02T02:30:00Z,26.2168,-96.4998,4.0,5.279564376,101.6934273,6.34,'11111222,11111222,11111222' 
TABS,ioos:station:wmo:42045:1,2014-12-02T03:00:00Z,26.2168,-96.4998,4.0,5.249476164,99.98308681,6.14,'11111222,11111222,11111222' 
TABS,ioos:station:wmo:42045:1,2014-12-02T03:30:00Z,26.2168,-96.4998,4.0,4.41426098,103.6273839,5.46,'11111222,11111222,11111222' 
TABS,ioos:station:wmo:42045:1,2014-12-02T04:00:00Z,26.2168,-96.4998,4.0,3.860828927,98.34037748,4.66,'11111222,11111222,11111222' 
TABS,ioos:station:wmo:42045:1,2014-12-02T04:30:00Z,26.2168,-96.4998,4.0,3.598735889,78.78334433,4.45,'11111222,11111222,11111222' 
TABS,ioos:station:wmo:42045:1,2014-12-02T05:00:00Z,26.2168,-96.4998,4.0,2.746124542,55.38368072,3.29,'11111222,11111222,11111222' 
TABS,ioos:station:wmo:42045:1,2014-12-02T05:30:00Z,26.2168,-96.4998,4.0,2.891660423,15.23749446,3.6,'11111222,11111222,11111222' 
TABS,ioos:station:wmo:42045:1,2014-12-02T06:00:00Z,26.2168,-96.4998,4.0,6.400703086,35.20439476,7.28,'11111222,11111222,11111222' 
TABS,ioos:station:wmo:42045:1,2014-12-02T06:30:00Z,26.2168,-96.4998,4.0,6.808494694,30.93460936,8.08,'11111222,11111222,11111222' 
TABS,ioos:station:wmo:42045:1,2014-12-02T07:00:00Z,26.2168,-96.4998,4.0,7.014164241,36.47750686,8.87,'11111222,11111222,11111222' 
TABS,ioos:station:wmo:42045:1,2014-12-02T07:30:00Z,26.2168,-96.4998,4.0,6.792385443,35.35107353,8.83,'11111222,11111222,11111222' 
TABS,ioos:station:wmo:42045:1,2014-12-02T08:00:00Z,26.2168,-96.4998,4.0,6.376684091,29.4994162,8.46,'11111222,11111222,11111222' 
TABS,ioos:station:wmo:42045:1,2014-12-02T08:30:00Z,26.2168,-96.4998,4.0,6.693168159,29.24555991,8.82,'11111222,11111222,11111222' 
TABS,ioos:station:wmo:42045:1,2014-12-02T09:00:00Z,26.2168,-96.4998,4.0,6.392472135,10.27254495,9.23,'11111222,11111222,11111222' 
TABS,ioos:station:wmo:42045:1,2014-12-02T09:30:00Z,26.2168,-96.4998,4.0,6.671311715,9.490327987,9.39,'11111222,11111222,11111222' 
TABS,ioos:station:wmo:42045:1,2014-12-02T10:00:00Z,26.2168,-96.4998,4.0,6.910028943,19.09022324,9.72,'11111222,11111222,11111222' 
TABS,ioos:station:wmo:42045:1,2014-12-02T10:30:00Z,26.2168,-96.4998,4.0,6.590007587,28.15915408,9.38,'11111222,11111222,11111222' 
TABS,ioos:station:wmo:42045:1,2014-12-02T11:00:00Z,26.2168,-96.4998,4.0,6.739206185,19.05306629,9.08,'11111222,11111222,11111222' 
TABS,ioos:station:wmo:42045:1,2014-12-02T11:30:00Z,26.2168,-96.4998,4.0,6.66610831,15.93334192,8.92,'11111222,11111222,11111222' 
TABS,ioos:station:wmo:42045:1,2014-12-02T12:00:00Z,26.2168,-96.4998,4.0,6.793121521,20.3287376,9.38,'11111222,11111222,11111222' 
TABS,ioos:station:wmo:42045:1,2014-12-02T12:30:00Z,26.2168,-96.4998,4.0,6.521019859,7.844080449,8.91,'11111222,11111222,11111222' 
TABS,ioos:station:wmo:42045:1,2014-12-02T13:00:00Z,26.2168,-96.4998,4.0,6.550847273,10.55494629,8.73,'11111222,11111222,11111222' 
TABS,ioos:station:wmo:42045:1,2014-12-02T13:30:00Z,26.2168,-96.4998,4.0,6.39513096,9.35898703,9.38,'11111222,11111222,11111222' 
TABS,ioos:station:wmo:42045:1,2014-12-02T14:00:00Z,26.2168,-96.4998,4.0,6.826302074,10.12443752,9.49,'11111222,11111222,11111222' 
TABS,ioos:station:wmo:42045:1,2014-12-02T14:30:00Z,26.2168,-96.4998,4.0,6.555425234,22.41790454,8.61,'11111222,11111222,11111222' 
TABS,ioos:station:wmo:42045:1,2014-12-02T15:00:00Z,26.2168,-96.4998,4.0,6.625103773,39.11872716,8.94,'11111222,11111222,11111222' 
TABS,ioos:station:wmo:42045:1,2014-12-02T15:30:00Z,26.2168,-96.4998,4.0,6.71804287,32.9091675,9.08,'11111222,11111222,11111222' 
TABS,ioos:station:wmo:42045:1,2014-12-02T16:00:00Z,26.2168,-96.4998,4.0,6.288855222,31.01034765,8.19,'11111222,11111222,11111222' 
TABS,ioos:station:wmo:42045:1,2014-12-02T16:30:00Z,26.2168,-96.4998,4.0,6.562194755,45.49360006,9.14,'11111222,11111222,11111222' 
TABS,ioos:station:wmo:42045:1,2014-12-02T17:00:00Z,26.2168,-96.4998,4.0,6.443019478,41.03503886,8.5,'11111222,11111222,11111222' 
TABS,ioos:station:wmo:42045:1,2014-12-02T17:30:00Z,26.2168,-96.4998,4.0,6.326531435,36.12695478,8.59,'11111222,11111222,11111222' 
TABS,ioos:station:wmo:42045:1,2014-12-02T18:00:00Z,26.2168,-96.4998,4.0,6.073582139,27.23980652,7.46,'11111222,11111222,11111222' 
TABS,ioos:station:wmo:42045:1,2014-12-02T18:30:00Z,26.2168,-96.4998,4.0,9.351818005,22.17659071,11.53,'11111222,11111222,11111222' 
TABS,ioos:station:wmo:42045:1,2014-12-02T19:00:00Z,26.2168,-96.4998,4.0,5.901228686,11.63339634,7.07,'11111222,11111222,11111222' 
TABS,ioos:station:wmo:42045:1,2014-12-02T19:30:00Z,26.2168,-96.4998,4.0,5.757308399,25.18496381,7.4,'11111222,11111222,11111222' 
TABS,ioos:station:wmo:42045:1,2014-12-02T20:00:00Z,26.2168,-96.4998,4.0,5.96632215,16.85536389,7.39,'11111222,11111222,11111222' 
TABS,ioos:station:wmo:42045:1,2014-12-02T20:30:00Z,26.2168,-96.4998,4.0,5.491265792,23.39013261,7.65,'11111222,11111222,11111222' 
TABS,ioos:station:wmo:42045:1,2014-12-02T21:00:00Z,26.2168,-96.4998,4.0,5.710770526,34.07934928,7.19,'11111222,11111222,11111222' 
TABS,ioos:station:wmo:42045:1,2014-12-02T21:30:00Z,26.2168,-96.4998,4.0,5.743561613,31.25431201,7.41,'11111222,11111222,11111222' 
TABS,ioos:station:wmo:42045:1,2014-12-02T22:00:00Z,26.2168,-96.4998,4.0,5.43547606,20.23501339,7.18,'11111222,11111222,11111222' 
TABS,ioos:station:wmo:42045:1,2014-12-02T22:30:00Z,26.2168,-96.4998,4.0,5.812882245,11.30969557,7.19,'11111222,11111222,11111222' 
TABS,ioos:station:wmo:42045:1,2014-12-02T23:00:00Z,26.2168,-96.4998,4.0,6.357562426,2.794680864,8.71,'11111222,11111222,11111222' 
TABS,ioos:station:wmo:42045:1,2014-12-02T23:30:00Z,26.2168,-96.4998,4.0,6.243476596,3.765020484,7.97,'11111222,11111222,11111222' 
TABS,ioos:station:wmo:42045:1,2014-12-03T00:00:00Z,26.2168,-96.4998,4.0,6.152934259,20.85005506,7.93,'11111222,11111222,11111222' 
TABS,ioos:station:wmo:42045:1,2014-12-03T00:30:00Z,26.2168,-96.4998,4.0,6.396131643,34.36059864,8.08,'11111222,11111222,11111222' 
TABS,ioos:station:wmo:42045:1,2014-12-03T01:00:00Z,26.2168,-96.4998,4.0,6.164454558,42.567233,7.91,'11111222,11111222,11111222' 
TABS,ioos:station:wmo:42045:1,2014-12-03T01:30:00Z,26.2168,-96.4998,4.0,5.990876397,50.01042256,7.62,'11111222,11111222,11111222' 
TABS,ioos:station:wmo:42045:1,2014-12-03T02:00:00Z,26.2168,-96.4998,4.0,6.069571649,61.0275618,7.71,'11111222,11111222,11111222' 
TABS,ioos:station:wmo:42045:1,2014-12-03T02:30:00Z,26.2168,-96.4998,4.0,6.274982072,68.79167304,7.87,'11111222,11111222,11111222' 
TABS,ioos:station:wmo:42045:1,2014-12-03T03:00:00Z,26.2168,-96.4998,4.0,6.027752483,76.86250194,7.49,'11111222,11111222,11111222' 
TABS,ioos:station:wmo:42045:1,2014-12-03T03:30:00Z,26.2168,-96.4998,4.0,6.709038679,81.77287586,8.23,'11111222,11111222,11111222' 
TABS,ioos:station:wmo:42045:1,2014-12-03T04:00:00Z,26.2168,-96.4998,4.0,6.511528238,79.37994864,8.31,'11111222,11111222,11111222' 
TABS,ioos:station:wmo:42045:1,2014-12-03T04:30:00Z,26.2168,-96.4998,4.0,6.625986719,86.01870572,8.04,'11111222,11111222,11111222' 
TABS,ioos:station:wmo:42045:1,2014-12-03T05:00:00Z,26.2168,-96.4998,4.0,6.671086868,94.55720888,8.04,'11111222,11111222,11111222' 
TABS,ioos:station:wmo:42045:1,2014-12-03T05:30:00Z,26.2168,-96.4998,4.0,6.792532665,98.38101454,8.3,'11111222,11111222,11111222' 
TABS,ioos:station:wmo:42045:1,2014-12-03T06:00:00Z,26.2168,-96.4998,4.0,6.404638944,111.7187182,7.77,'11111222,11111222,11111222' 
TABS,ioos:station:wmo:42045:1,2014-12-03T06:30:00Z,26.2168,-96.4998,4.0,6.928390867,115.5668136,8.39,'11111222,11111222,11111222' 
TABS,ioos:station:wmo:42045:1,2014-12-03T07:00:00Z,26.2168,-96.4998,4.0,6.49926919,114.1597761,7.86,'11111222,11111222,11111222' 
TABS,ioos:station:wmo:42045:1,2014-12-03T07:30:00Z,26.2168,-96.4998,4.0,6.368398543,116.2837623,7.43,'11111222,11111222,11111222' 
TABS,ioos:station:wmo:42045:1,2014-12-03T08:00:00Z,26.2168,-96.4998,4.0,5.82772683,118.9403659,7.3,'11111222,11111222,11111222' 
TABS,ioos:station:wmo:42045:1,2014-12-03T08:30:00Z,26.2168,-96.4998,4.0,5.257604017,113.5423835,6.46,'11111222,11111222,11111222' 
TABS,ioos:station:wmo:42045:1,2014-12-03T09:00:00Z,26.2168,-96.4998,4.0,5.451541067,116.4714057,6.75,'11111222,11111222,11111222' 
TABS,ioos:station:wmo:42045:1,2014-12-03T09:30:00Z,26.2168,-96.4998,4.0,5.403896742,115.1901992,6.51,'11111222,11111222,11111222' 
TABS,ioos:station:wmo:42045:1,2014-12-03T10:00:00Z,26.2168,-96.4998,4.0,4.875920426,119.3517048,6.12,'11111222,11111222,11111222' 
TABS,ioos:station:wmo:42045:1,2014-12-03T10:30:00Z,26.2168,-96.4998,4.0,4.801301907,118.4870035,6.32,'11111222,11111222,11111222' 
TABS,ioos:station:wmo:42045:1,2014-12-03T11:00:00Z,26.2168,-96.4998,4.0,5.087808959,118.5299258,6.5,'11111222,11111222,11111222' 
TABS,ioos:station:wmo:42045:1,2014-12-03T11:30:00Z,26.2168,-96.4998,4.0,4.686971304,116.0733793,5.73,'11111222,11111222,11111222' 
TABS,ioos:station:wmo:42045:1,2014-12-03T12:00:00Z,26.2168,-96.4998,4.0,4.727589238,115.6981817,6.37,'11111222,11111222,11111222' 
TABS,ioos:station:wmo:42045:1,2014-12-03T12:30:00Z,26.2168,-96.4998,4.0,4.689658836,108.3966917,5.44,'11111222,11111222,11111222' 
TABS,ioos:station:wmo:42045:1,2014-12-03T13:00:00Z,26.2168,-96.4998,4.0,5.22732245,108.7472781,6.08,'11111222,11111222,11111222' 
TABS,ioos:station:wmo:42045:1,2014-12-03T13:30:00Z,26.2168,-96.4998,4.0,5.073854551,112.7244699,6.08,'11111222,11111222,11111222' 
TABS,ioos:station:wmo:42045:1,2014-12-03T14:00:00Z,26.2168,-96.4998,4.0,4.677574158,107.5443911,5.57,'11111222,11111222,11111222' 
TABS,ioos:station:wmo:42045:1,2014-12-03T14:30:00Z,26.2168,-96.4998,4.0,5.005457022,112.9284131,6.06,'11111222,11111222,11111222' 
TABS,ioos:station:wmo:42045:1,2014-12-03T15:00:00Z,26.2168,-96.4998,4.0,4.275418108,108.2658134,5.16,'11111222,11111222,11111222' 
TABS,ioos:station:wmo:42045:1,2014-12-03T15:30:00Z,26.2168,-96.4998,4.0,4.670770814,112.6674132,5.49,'11111222,11111222,11111222' 
TABS,ioos:station:wmo:42045:1,2014-12-03T16:00:00Z,26.2168,-96.4998,4.0,4.611333863,107.4137019,5.62,'11111222,11111222,11111222' 
TABS,ioos:station:wmo:42045:1,2014-12-03T16:30:00Z,26.2168,-96.4998,4.0,4.244679022,103.3491168,5.03,'11111222,11111222,11111222' 
TABS,ioos:station:wmo:42045:1,2014-12-03T17:00:00Z,26.2168,-96.4998,4.0,4.135661978,96.38649554,5.21,'11111222,11111222,11111222' 
TABS,ioos:station:wmo:42045:1,2014-12-03T17:30:00Z,26.2168,-96.4998,4.0,4.431895757,106.922517,5.19,'11111222,11111222,11111222' 
TABS,ioos:station:wmo:42045:1,2014-12-03T18:00:00Z,26.2168,-96.4998,4.0,4.835255939,97.84562039,5.87,'11111222,11111222,11111222' 
TABS,ioos:station:wmo:42045:1,2014-12-03T18:30:00Z,26.2168,-96.4998,4.0,4.464448454,106.5275307,6.37,'11111222,11111222,11111222' 
TABS,ioos:station:wmo:42045:1,2014-12-03T19:00:00Z,26.2168,-96.4998,4.0,4.3071104,113.8277866,5.32,'11111222,11111222,11111222' 
TABS,ioos:station:wmo:42045:1,2014-12-03T19:30:00Z,26.2168,-96.4998,4.0,3.243269955,113.2453504,4.69,'11111222,11111222,11111222' 
TABS,ioos:station:wmo:42045:1,2014-12-03T20:00:00Z,26.2168,-96.4998,4.0,1.648059465,232.6434654,2.27,'11111222,11111222,11111222' 
TABS,ioos:station:wmo:42045:1,2014-12-03T20:30:00Z,26.2168,-96.4998,4.0,2.60403533,227.1787802,5.53,'11111222,11111222,11111222' 
TABS,ioos:station:wmo:42045:1,2014-12-03T21:00:00Z,26.2168,-96.4998,4.0,1.565407295,265.2363694,2.16,'11111222,11111222,11111222' 
TABS,ioos:station:wmo:42045:1,2014-12-03T21:30:00Z,26.2168,-96.4998,4.0,1.350925609,267.8789086,1.86,'11111222,11111222,11111222' 
TABS,ioos:station:wmo:42045:1,2014-12-03T22:00:00Z,26.2168,-96.4998,4.0,1.09772492,246.9385344,1.53,'11111222,11111222,11111222' 
TABS,ioos:station:wmo:42045:1,2014-12-03T22:30:00Z,26.2168,-96.4998,4.0,1.658493292,249.1609639,2.02,'11111222,11111222,11111222' 
TABS,ioos:station:wmo:42045:1,2014-12-03T23:00:00Z,26.2168,-96.4998,4.0,2.254351348,273.5604722,2.78,'11111222,11111222,11111222' 
TABS,ioos:station:wmo:42045:1,2014-12-03T23:30:00Z,26.2168,-96.4998,4.0,2.171174797,275.8156129,2.78,'11111222,11111222,11111222' 
TABS,ioos:station:wmo:42045:1,2014-12-04T00:00:00Z,26.2168,-96.4998,4.0,2.050097559,247.9391521,2.47,'11111222,11111222,11111222' 
TABS,ioos:station:wmo:42045:1,2014-12-04T00:30:00Z,26.2168,-96.4998,4.0,1.819505427,230.7993093,2.26,'11111222,11111222,11111222' 
TABS,ioos:station:wmo:42045:1,2014-12-04T01:00:00Z,26.2168,-96.4998,4.0,1.634778272,256.5588266,2.17,'11111222,11111222,11111222' 
TABS,ioos:station:wmo:42045:1,2014-12-04T01:30:00Z,26.2168,-96.4998,4.0,0.90354856,275.079596,1.47,'11111222,11111222,11111222' 
TABS,ioos:station:wmo:42045:1,2014-12-04T02:00:00Z,26.2168,-96.4998,4.0,4.617358552,121.9005032,5.97,'11111222,11111222,11111222' 
TABS,ioos:station:wmo:42045:1,2014-12-04T02:30:00Z,26.2168,-96.4998,4.0,6.254118643,130.7208622,7.4,'11111222,11111222,11111222' 
TABS,ioos:station:wmo:42045:1,2014-12-04T03:00:00Z,26.2168,-96.4998,4.0,6.153738701,131.9044881,7.5,'11111222,11111222,11111222' 
TABS,ioos:station:wmo:42045:1,2014-12-04T03:30:00Z,26.2168,-96.4998,4.0,6.621480197,136.713777,7.94,'11111222,11111222,11111222' 
TABS,ioos:station:wmo:42045:1,2014-12-04T04:00:00Z,26.2168,-96.4998,4.0,5.584012894,143.007271,6.61,'11111222,11111222,11111222' 
TABS,ioos:station:wmo:42045:1,2014-12-04T04:30:00Z,26.2168,-96.4998,4.0,2.870435507,179.0021294,4.18,'11111222,11111222,11111222' 
TABS,ioos:station:wmo:42045:1,2014-12-04T05:00:00Z,26.2168,-96.4998,4.0,1.271416533,172.3162466,1.66,'11111222,11111222,11111222' 
TABS,ioos:station:wmo:42045:1,2014-12-04T05:30:00Z,26.2168,-96.4998,4.0,0.784474346,168.9767803,1.26,'11111222,11111222,11111222' 
TABS,ioos:station:wmo:42045:1,2014-12-04T06:00:00Z,26.2168,-96.4998,4.0,4.472326017,126.1784134,5.72,'11111222,11111222,11111222' 
TABS,ioos:station:wmo:42045:1,2014-12-04T06:30:00Z,26.2168,-96.4998,4.0,4.736084881,122.1467881,5.52,'11111222,11111222,11111222' 
TABS,ioos:station:wmo:42045:1,2014-12-04T07:00:00Z,26.2168,-96.4998,4.0,4.688816482,121.2155839,5.45,'11111222,11111222,11111222' 
TABS,ioos:station:wmo:42045:1,2014-12-04T07:30:00Z,26.2168,-96.4998,4.0,5.300113206,114.0506632,6.18,'11111222,11111222,11111222' 
TABS,ioos:station:wmo:42045:1,2014-12-04T08:00:00Z,26.2168,-96.4998,4.0,5.11353107,118.1189793,5.94,'11111222,11111222,11111222' 
TABS,ioos:station:wmo:42045:1,2014-12-04T08:30:00Z,26.2168,-96.4998,4.0,4.841993391,118.6297013,5.88,'11111222,11111222,11111222' 
TABS,ioos:station:wmo:42045:1,2014-12-04T09:00:00Z,26.2168,-96.4998,4.0,4.624499973,115.9005,5.73,'11111222,11111222,11111222' 
TABS,ioos:station:wmo:42045:1,2014-12-04T09:30:00Z,26.2168,-96.4998,4.0,4.523737393,114.6958895,5.84,'11111222,11111222,11111222' 
TABS,ioos:station:wmo:42045:1,2014-12-04T10:00:00Z,26.2168,-96.4998,4.0,3.879304061,100.8468738,4.45,'11111222,11111222,11111222' 
TABS,ioos:station:wmo:42045:1,2014-12-04T10:30:00Z,26.2168,-96.4998,4.0,3.582582867,94.80389544,4.67,'11111222,11111222,11111222' 
TABS,ioos:station:wmo:42045:1,2014-12-04T11:00:00Z,26.2168,-96.4998,4.0,3.267108814,82.6135532,3.8,'11111222,11111222,11111222' 
TABS,ioos:station:wmo:42045:1,2014-12-04T11:30:00Z,26.2168,-96.4998,4.0,3.342528983,87.77063416,3.88,'11111222,11111222,11111222' 
TABS,ioos:station:wmo:42045:1,2014-12-04T12:00:00Z,26.2168,-96.4998,4.0,2.712673958,82.58640071,3.51,'11111222,11111222,11111222' 
TABS,ioos:station:wmo:42045:1,2014-12-04T12:30:00Z,26.2168,-96.4998,4.0,3.442615285,80.97505956,4.41,'11111222,11111222,11111222' 
TABS,ioos:station:wmo:42045:1,2014-12-04T13:00:00Z,26.2168,-96.4998,4.0,3.314724725,67.84514264,3.77,'11111222,11111222,11111222' 
TABS,ioos:station:wmo:42045:1,2014-12-04T13:30:00Z,26.2168,-96.4998,4.0,3.160917588,74.77629164,3.72,'11111222,11111222,11111222' 
TABS,ioos:station:wmo:42045:1,2014-12-04T14:00:00Z,26.2168,-96.4998,4.0,3.211370424,94.8233177,3.89,'11111222,11111222,11111222' 
TABS,ioos:station:wmo:42045:1,2014-12-04T14:30:00Z,26.2168,-96.4998,4.0,2.405327421,93.81448683,3.09,'11111222,11111222,11111222' 
TABS,ioos:station:wmo:42045:1,2014-12-04T15:00:00Z,26.2168,-96.4998,4.0,3.85659176,132.7936852,4.48,'11111222,11111222,11111222' 
TABS,ioos:station:wmo:42045:1,2014-12-04T15:30:00Z,26.2168,-96.4998,4.0,3.685172995,133.5709704,4.39,'11111222,11111222,11111222' 
TABS,ioos:station:wmo:42045:1,2014-12-04T16:00:00Z,26.2168,-96.4998,4.0,4.085890356,138.0756346,4.64,'11111222,11111222,11111222' 
TABS,ioos:station:wmo:42045:1,2014-12-04T16:30:00Z,26.2168,-96.4998,4.0,4.196724914,142.0654453,4.71,'11111222,11111222,11111222' 
TABS,ioos:station:wmo:42045:1,2014-12-04T17:00:00Z,26.2168,-96.4998,4.0,4.434241762,136.0053993,5.26,'11111222,11111222,11111222' 
TABS,ioos:station:wmo:42045:1,2014-12-04T17:30:00Z,26.2168,-96.4998,4.0,4.308340748,145.0191669,5.08,'11111222,11111222,11111222' 
TABS,ioos:station:wmo:42045:1,2014-12-04T18:00:00Z,26.2168,-96.4998,4.0,4.046096885,149.8865477,4.84,'11111222,11111222,11111222' 
TABS,ioos:station:wmo:42045:1,2014-12-04T18:30:00Z,26.2168,-96.4998,4.0,3.817905185,149.8086581,4.51,'11111222,11111222,11111222' 
TABS,ioos:station:wmo:42045:1,2014-12-04T19:00:00Z,26.2168,-96.4998,4.0,3.755582511,164.5578,4.26,'11111222,11111222,11111222' 